When you browse on this site, cookies collect data to enhance your experience and personalize the content and advertising you see.
Visit our Privacy Policy to learn more. By continuing to use the site, you agree to this use of cookies and data.
  • In Österreich
  • Länderverzeichnis
  • Für 7 Tage
  • Wassertemperatur
  • Satellitenkarten
  • Wetterkarte
  • News
  • Widgets
  • user-avatar
    Anmelden

    Stündliche Wetter Senaki

    Heute, 21 Januar, Montag

    Zeit Temperatur Niederschläge Wind Luftdruck Luftfeuchtigkeit
    00:00 +4°C° 0 mm 3 m/S 766 mmHg 59%
    01:00 +4°C° 0 mm 3 m/S 766 mmHg 58%
    02:00 +4°C° 0 mm 3 m/S 766 mmHg 57%
    03:00 +4°C° 0 mm 3 m/S 765 mmHg 55%
    04:00 +4°C° 0 mm 3 m/S 765 mmHg 55%
    05:00 +4°C° 0 mm 3 m/S 765 mmHg 54%
    06:00 +4°C° 0 mm 3 m/S 765 mmHg 54%
    07:00 +5°C° 0 mm 3 m/S 765 mmHg 53%
    08:00 +5°C° 0 mm 3 m/S 765 mmHg 52%
    09:00 +5°C° 0 mm 3 m/S 764 mmHg 51%
    10:00 +7°C° 0 mm 4 m/S 764 mmHg 46%
    11:00 +10°C° 0 mm 4 m/S 763 mmHg 42%
    12:00 +12°C° 0 mm 4 m/S 762 mmHg 38%
    13:00 +12°C° 0 mm 4 m/S 762 mmHg 38%
    14:00 +12°C° 0 mm 4 m/S 762 mmHg 38%
    15:00 +13°C° 0 mm 3 m/S 761 mmHg 38%
    16:00 +11°C° 0 mm 3 m/S 762 mmHg 43%
    17:00 +10°C° 0 mm 3 m/S 762 mmHg 48%
    18:00 +8°C° 0 mm 3 m/S 763 mmHg 52%
    19:00 +8°C° 0 mm 3 m/S 763 mmHg 53%
    20:00 +7°C° 0 mm 3 m/S 763 mmHg 54%
    21:00 +7°C° 0 mm 3 m/S 763 mmHg 55%
    22:00 +7°C° 0 mm 3 m/S 763 mmHg 54%
    23:00 +5°C° 0 mm 3 m/S 763 mmHg 54%

    Morgen, 22 Januar, Dienstag

    Zeit Temperatur Niederschläge Wind Luftdruck Luftfeuchtigkeit
    00:00 +5°C° 0 mm 3 m/S 763 mmHg 53%
    01:00 +6°C° 0 mm 2 m/S 763 mmHg 53%
    02:00 +6°C° 0 mm 2 m/S 762 mmHg 52%
    03:00 +6°C° 0 mm 2 m/S 762 mmHg 52%
    04:00 +6°C° 0 mm 2 m/S 763 mmHg 52%
    05:00 +6°C° 0 mm 2 m/S 763 mmHg 52%
    06:00 +6°C° 0 mm 2 m/S 763 mmHg 52%
    07:00 +6°C° 0.1 mm 2 m/S 763 mmHg 55%
    08:00 +6°C° 0.1 mm 2 m/S 763 mmHg 58%
    09:00 +6°C° 0.1 mm 2 m/S 763 mmHg 60%
    10:00 +7°C° 0.8 mm 1 m/S 763 mmHg 63%
    11:00 +7°C° 0.8 mm 1 m/S 763 mmHg 66%
    12:00 +8°C° 0.8 mm 1 m/S 763 mmHg 70%
    13:00 +8°C° 1 mm 1 m/S 762 mmHg 73%
    14:00 +7°C° 1 mm 1 m/S 762 mmHg 76%
    15:00 +7°C° 1 mm 1 m/S 762 mmHg 79%
    16:00 +7°C° 0.4 mm 1 m/S 763 mmHg 82%
    17:00 +7°C° 0.4 mm 1 m/S 763 mmHg 84%
    18:00 +7°C° 0.4 mm 1 m/S 764 mmHg 87%
    19:00 +7°C° 0 mm 1 m/S 764 mmHg 87%
    20:00 +7°C° 0 mm 1 m/S 764 mmHg 87%
    21:00 +6°C° 0 mm 1 m/S 764 mmHg 87%
    22:00 +6°C° 0 mm 1 m/S 764 mmHg 85%
    23:00 +5°C° 0 mm 2 m/S 764 mmHg 83%

    übermorgen, 23 Januar, Mittwoch

    Zeit Temperatur Niederschläge Wind Luftdruck Luftfeuchtigkeit
    00:00 +5°C° 0 mm 2 m/S 764 mmHg 82%
    01:00 +5°C° 0 mm 2 m/S 764 mmHg 79%
    02:00 +4°C° 0 mm 2 m/S 764 mmHg 76%
    03:00 +4°C° 0 mm 2 m/S 763 mmHg 73%
    04:00 +3°C° 0 mm 3 m/S 763 mmHg 71%
    05:00 +3°C° 0 mm 3 m/S 763 mmHg 68%
    06:00 +3°C° 0 mm 3 m/S 763 mmHg 66%
    07:00 +4°C° 0 mm 3 m/S 763 mmHg 63%
    08:00 +4°C° 0 mm 3 m/S 763 mmHg 61%
    09:00 +5°C° 0 mm 3 m/S 763 mmHg 59%
    10:00 +8°C° 0 mm 3 m/S 763 mmHg 54%
    11:00 +8°C° 0 mm 4 m/S 762 mmHg 49%
    12:00 +11°C° 0 mm 4 m/S 762 mmHg 45%
    13:00 +12°C° 0 mm 4 m/S 761 mmHg 45%
    14:00 +12°C° 0 mm 4 m/S 761 mmHg 45%
    15:00 +12°C° 0 mm 4 m/S 761 mmHg 45%
    16:00 +11°C° 0 mm 4 m/S 762 mmHg 49%
    17:00 +10°C° 0 mm 4 m/S 762 mmHg 53%
    18:00 +8°C° 0 mm 4 m/S 763 mmHg 56%
    19:00 +7°C° 0 mm 4 m/S 763 mmHg 55%
    20:00 +7°C° 0 mm 4 m/S 763 mmHg 54%
    21:00 +7°C° 0 mm 5 m/S 764 mmHg 52%
    22:00 +6°C° 0 mm 5 m/S 764 mmHg 51%
    23:00 +6°C° 0 mm 5 m/S 764 mmHg 50%

    24 Januar, Donnerstag

    Zeit Temperatur Niederschläge Wind Luftdruck Luftfeuchtigkeit
    00:00 +6°C° 0 mm 5 m/S 764 mmHg 49%
    01:00 +6°C° 0 mm 5 m/S 764 mmHg 48%
    02:00 +6°C° 0 mm 5 m/S 763 mmHg 48%
    03:00 +6°C° 0 mm 5 m/S 763 mmHg 48%
    04:00 +5°C° 0 mm 6 m/S 763 mmHg 47%
    05:00 +5°C° 0 mm 6 m/S 763 mmHg 47%
    06:00 +5°C° 0 mm 6 m/S 763 mmHg 47%
    07:00 +5°C° 0 mm 6 m/S 762 mmHg 46%
    08:00 +7°C° 0 mm 6 m/S 762 mmHg 45%
    09:00 +7°C° 0 mm 6 m/S 762 mmHg 45%
    10:00 +9°C° 0 mm 6 m/S 761 mmHg 42%
    11:00 +11°C° 0 mm 6 m/S 761 mmHg 39%
    12:00 +13°C° 0 mm 6 m/S 760 mmHg 37%
    13:00 +14°C° 0 mm 6 m/S 759 mmHg 37%
    14:00 +14°C° 0 mm 5 m/S 759 mmHg 37%
    15:00 +14°C° 0 mm 5 m/S 759 mmHg 38%
    16:00 +13°C° 0 mm 5 m/S 759 mmHg 40%
    17:00 +12°C° 0 mm 5 m/S 759 mmHg 42%
    18:00 +10°C° 0 mm 5 m/S 760 mmHg 45%
    19:00 +10°C° 0 mm 5 m/S 760 mmHg 44%
    20:00 +9°C° 0 mm 5 m/S 760 mmHg 43%
    21:00 +9°C° 0 mm 5 m/S 759 mmHg 42%
    22:00 +9°C° 0 mm 5 m/S 760 mmHg 43%
    23:00 +8°C° 0 mm 5 m/S 760 mmHg 44%

    25 Januar, Freitag

    Zeit Temperatur Niederschläge Wind Luftdruck Luftfeuchtigkeit
    00:00 +8°C° 0 mm 4 m/S 760 mmHg 44%
    01:00 +8°C° 0 mm 4 m/S 760 mmHg 44%
    02:00 +8°C° 0 mm 4 m/S 760 mmHg 44%
    03:00 +8°C° 0 mm 4 m/S 759 mmHg 44%
    04:00 +8°C° 0 mm 4 m/S 759 mmHg 47%
    05:00 +9°C° 0 mm 3 m/S 759 mmHg 51%
    06:00 +9°C° 0 mm 3 m/S 759 mmHg 54%
    07:00 +9°C° 0.3 mm 3 m/S 759 mmHg 56%
    08:00 +9°C° 0.3 mm 3 m/S 760 mmHg 57%
    09:00 +9°C° 0.3 mm 3 m/S 760 mmHg 59%
    10:00 +10°C° 0 mm 3 m/S 759 mmHg 56%
    11:00 +11°C° 0 mm 4 m/S 759 mmHg 53%
    12:00 +12°C° 0 mm 4 m/S 759 mmHg 50%
    13:00 +13°C° 0 mm 4 m/S 758 mmHg 50%
    14:00 +13°C° 0 mm 4 m/S 758 mmHg 50%
    15:00 +14°C° 0 mm 4 m/S 758 mmHg 49%
    16:00 +13°C° 0 mm 4 m/S 758 mmHg 53%
    17:00 +12°C° 0 mm 3 m/S 759 mmHg 57%
    18:00 +11°C° 0 mm 3 m/S 759 mmHg 60%
    19:00 +10°C° 0 mm 3 m/S 760 mmHg 61%
    20:00 +10°C° 0 mm 3 m/S 760 mmHg 62%
    21:00 +10°C° 0 mm 3 m/S 760 mmHg 63%
    22:00 +9°C° 0 mm 3 m/S 760 mmHg 63%
    23:00 +9°C° 0 mm 3 m/S 760 mmHg 62%

    26 Januar, Samstag

    Zeit Temperatur Niederschläge Wind Luftdruck Luftfeuchtigkeit
    00:00 +9°C° 0 mm 3 m/S 760 mmHg 62%
    01:00 +9°C° 0 mm 3 m/S 760 mmHg 60%
    02:00 +9°C° 0 mm 3 m/S 759 mmHg 59%
    03:00 +8°C° 0 mm 3 m/S 759 mmHg 58%
    04:00 +8°C° 0 mm 3 m/S 759 mmHg 58%
    05:00 +8°C° 0 mm 3 m/S 758 mmHg 57%
    06:00 +8°C° 0 mm 3 m/S 758 mmHg 57%
    07:00 +9°C° 0 mm 3 m/S 758 mmHg 56%
    08:00 +9°C° 0 mm 3 m/S 758 mmHg 55%
    09:00 +10°C° 0 mm 3 m/S 757 mmHg 54%
    10:00 +11°C° 0 mm 3 m/S 757 mmHg 50%
    11:00 +13°C° 0 mm 3 m/S 756 mmHg 45%
    12:00 +16°C° 0 mm 3 m/S 756 mmHg 41%
    13:00 +16°C° 0 mm 3 m/S 756 mmHg 42%
    14:00 +16°C° 0 mm 2 m/S 755 mmHg 43%
    15:00 +16°C° 0 mm 2 m/S 755 mmHg 44%
    16:00 +15°C° 0 mm 2 m/S 756 mmHg 47%
    17:00 +14°C° 0 mm 2 m/S 756 mmHg 50%
    18:00 +13°C° 0 mm 2 m/S 757 mmHg 53%
    19:00 +12°C° 0 mm 3 m/S 757 mmHg 53%
    20:00 +12°C° 0 mm 3 m/S 757 mmHg 53%
    21:00 +11°C° 0 mm 3 m/S 757 mmHg 53%
    22:00 +11°C° 0 mm 3 m/S 757 mmHg 54%
    23:00 +10°C° 0 mm 3 m/S 757 mmHg 55%
    Mehr zeigen